Location: Unspecified
(43.4000°N, 0.0000°E)
Time: 17:27:27
(UTC+00:00)

NOAA 19 - Visible Passes

Search period start: 23 August 2019 00:00
Search period end: 02 September 2019 00:00
Orbit: 841 x 861 km, 99.2° (Epoch: 22 August)

Date Brightness Start Highest point End Pass type
(mag) Time Alt. Az. Time Alt. Az. Time Alt. Az.
23 Aug 8.0 04:08:14 10° NE 04:11:23 15° E 04:14:31 10° SE visible
24 Aug 8.2 03:57:39 10° ENE 03:59:33 12° E 04:01:26 10° ESE visible
29 Aug 7.4 04:37:42 10° NE 04:42:22 28° E 04:46:58 10° SSE visible
30 Aug 7.8 04:26:23 10° NE 04:30:35 22° E 04:34:44 10° SE visible
31 Aug 8.0 04:15:13 10° NE 04:18:46 17° E 04:22:18 10° SE visible
01 Sep 8.1 04:04:19 10° ENE 04:06:56 13° E 04:09:32 10° ESE visible
